Flag for U.S.A. Weather past 2 weeks in Riverside, California, U.S.A.

Now
61 °F

Overcast.


Feels Like: 61 °F
Forecast: 55 / 69 °F
Wind: 3 mph from West

Location: Riverside Municipal Airport

Current Time: May 22, 2015 at 8:13:01 PM

Latest Report: May 22, 2015 at 7:53 PM


Visibility: 10 mi

Pressure: 30.01 "Hg

Humidity: 67%

Dew point: 50 °F

Location of RiversideLocation

Historic Weather in Riverside — Graph

°F

Riverside temperature yesterday

Maximum temperature yesterday: 70 °F (at 4:53 PM)
Minimum temperature yesterday: 58 °F (at 11:53 PM)
Average temperature yesterday: 62 °F

Past Weeks' High & Low Weather Summary

 TemperatureHumidityPressure
High86 °F (May 11, 1:53 PM)93% (May 12, 6:04 AM)30.06 "Hg (May 12, 6:04 AM)
Low48 °F (May 8, 4:53 AM)23% (May 11, 2:53 PM)29.75 "Hg (May 11, 5:53 PM)
Average61 °F65%29.92 "Hg
* Reported May 7 6:53 PM — May 22 6:53 PM, Riverside, Weather by CustomWeather, © 2015

Note: Actual official high and low records may vary slightly from our data, if they occured in-between our weather recording intervals... More about our weather records

Advertising

Riverside weather history for previous 24 hours

 ConditionsComfort  
Time TempWeatherWind HumidityBarometerVisibility
6:53 PM
Fri, May 22
62 °FOvercast.7 mph62%29.99 "Hg10 mi
5:53 PM62 °FOvercast.5 mph60%29.99 "Hg10 mi
4:53 PM62 °FOvercast.7 mph60%29.99 "Hg10 mi
3:53 PM61 °FOvercast.7 mph65%29.98 "Hg10 mi
2:53 PM63 °FOvercast.10 mph58%29.98 "Hg10 mi
1:53 PM63 °FMostly cloudy.6 mph52%29.98 "Hg10 mi
12:53 PM62 °FMore clouds than sun.10 mph58%29.99 "Hg10 mi
11:53 AM64 °FMostly cloudy.6 mph54%30.00 "Hg10 mi
10:53 AM62 °FMostly cloudy.8 mph54%29.99 "Hg10 mi
9:53 AM61 °FOvercast.8 mph56%29.99 "Hg10 mi
8:53 AM59 °FMostly cloudy.7 mph64%29.99 "Hg10 mi
7:53 AM57 °FCloudy.7 mph69%29.98 "Hg10 mi
6:53 AM57 °FMore clouds than sun.7 mph72%29.96 "Hg10 mi
5:53 AM57 °FOvercast.8 mph72%29.95 "Hg10 mi
4:53 AM57 °FMostly cloudy.5 mph72%29.94 "Hg10 mi
3:53 AM56 °FClear.No wind72%29.94 "Hg10 mi
2:53 AM57 °FOvercast.6 mph67%29.94 "Hg10 mi
1:53 AM58 °FMostly cloudy.9 mph60%29.95 "Hg10 mi
12:53 AM58 °FOvercast.10 mph65%29.95 "Hg10 mi
11:53 PM
Thu, May 21
58 °FMostly cloudy.8 mph67%29.95 "Hg10 mi
10:53 PM59 °FOvercast.10 mph75%29.95 "Hg10 mi
9:53 PM59 °FMostly cloudy.12 mph67%29.94 "Hg10 mi
8:53 PM60 °FOvercast.12 mph65%29.92 "Hg10 mi
Weather by CustomWeather, © 2015

See weather overviewHow to use our weather pages